Location: Wellington
(38.7901°N, 77.5605°W)
Time: 06:04:30
(UTC+00:00)

Daily predictions for brighter satellites

Satellite Brightness Start Highest point End
(mag) Time Altitude Azimuth Time Altitude Azimuth Time Altitude Azimuth
Cosmos 2016 Rocket 4.5 22:22:35 10° SSE 22:28:17 40° E 22:34:04 10° NNE
Cosmos 1331 Rocket 4.3 22:24:11 10° NNW 22:29:21 74° WSW 22:34:27 10° S
USA 215 4.1 22:24:02 10° SSE 22:30:26 58° SW 22:36:54 10° NW
CORIOLIS 4.1 22:26:27 10° SSE 22:31:49 74° ENE 22:37:11 10° N
ARIANE 6 FM1 Upper Stage 2.9 22:30:50 10° SW 22:34:50 65° NW 22:38:48 10° NNE
SJ-12 3.9 22:31:23 10° SSE 22:35:04 49° ENE 22:38:46 10° N
Meteor 1-21 Rocket 4.4 22:30:35 10° NNW 22:36:08 78° W 22:41:38 10° S
Cosmos 1606 1.7 22:33:53 10° S 22:36:34 64° E 22:39:15 10° NNE
IGS 5A 4.0 22:34:07 10° S 22:38:02 62° W 22:42:00 10° NNW
Cosmos 1818 4.0 22:32:39 10° NW 22:38:04 68° WSW 22:43:25 10° SSE
SAR-Lupe-4 3.5 22:35:41 10° SSE 22:39:15 80° ENE 22:42:51 10° N
Cosmos 1378 Rocket 3.5 22:35:27 10° N 22:39:47 89° E 22:44:07 10° S
SPOT 1/Viking Rocket 4.4 22:37:27 10° SE 22:41:44 27° ENE 22:46:02 10° N
ARIANE 5 R/B 2.4 22:38:58 10° SSE 22:43:56 76° ENE 22:48:55 10° N
Cosmos 1844 Rocket 3.4 22:42:10 10° SW 22:47:37 56° WNW 22:53:05 10° NNE
Tiangong -1.7 22:46:41 10° W 22:49:48 50° N 22:52:14 15° ENE
Cosmos 2100 Rocket 4.3 22:45:12 10° SSW 22:51:26 74° W 22:57:37 10° N
SWARM C 4.4 22:51:22 10° N 22:54:41 78° E 22:57:59 10° S
SWARM A 4.2 22:51:28 10° N 22:54:47 63° E 22:58:03 10° S
SKYMED 2 3.8 22:52:02 10° NNE 22:56:14 46° E 23:00:23 10° S
SL-4 R/B 3.9 22:56:23 10° NNW 22:58:00 13° NNE 22:59:21 11° NE
COSMO-SKYMED 1 3.2 22:54:21 10° NNE 22:58:03 32° E 23:01:44 10° SSE
Cosmos 1816 Rocket 4.5 22:51:43 10° N 22:58:04 77° E 23:04:19 10° S
SMAP 3.8 22:55:44 10° S 23:00:19 59° W 23:04:55 10° NNW
Cosmos 1908 Rocket 3.5 22:56:17 10° S 23:00:40 82° E 23:05:05 10° N
Cosmos 1833 Rocket 4.0 22:56:47 10° N 23:00:41 19° NE 23:02:37 16° ENE
Cosmos 1867 4.1 22:56:59 10° SW 23:02:19 59° WNW 23:07:44 10° NNE
Cosmos 1300 Rocket 3.7 23:01:38 10° SSE 23:05:52 49° E 23:10:08 10° NNE
Iridium 4 Rocket 4.3 23:02:20 10° SSW 23:07:50 57° W 23:12:59 10° N
Cosmos 1975 Rocket 4.1 23:06:53 10° NNE 23:10:22 23° ENE 23:13:00 14° ESE
Cosmos 1603 3.9 23:05:30 10° NNW 23:11:11 77° WSW 23:16:47 10° SSE
Cosmos 2221 Rocket 3.6 23:07:05 10° N 23:11:36 89° ENE 23:16:04 10° S
Delta 2 Rocket 3.8 23:09:17 10° WSW 23:13:07 45° S 23:15:13 22° ESE
Landsat 7 4.4 23:10:36 10° S 23:15:11 59° W 23:19:47 10° NNW
Cosmos 1441 Rocket 3.1 23:12:11 10° N 23:15:23 42° ENE 23:18:33 10° SSE
BREEZE-M DEB (TANK) 2.3 23:15:08 10° SW 23:17:24 85° SE 23:19:53 22° ENE
Cosmos 1725 Rocket 4.3 23:16:51 10° SSW 23:23:02 69° W 23:29:19 10° N
Spot 4 Rocket 4.0 23:18:52 10° SSE 23:23:52 60° ENE 23:28:53 10° N
Aureole 2 4.4 23:21:19 10° S 23:24:31 52° ESE 23:25:42 34° NE
Cosmos 2084 Rocket 4.0 23:24:14 10° S 23:27:59 33° ESE 23:28:27 33° ESE
NOSS 3-4 (A) 3.9 23:23:21 10° NNW 23:30:20 66° NE 23:38:29 10° SE
NOSS 3-4 (C) 3.9 23:23:26 10° NNW 23:30:25 65° NE 23:38:32 10° SE
Cosmos 2233 Rocket 4.1 23:28:15 10° S 23:34:30 83° W 23:40:51 10° N
SJ-7 4.0 23:31:54 10° SSE 23:35:34 75° ENE 23:39:15 10° N
Cosmos 1023 Rocket 4.4 23:31:09 10° S 23:36:14 60° ESE 23:39:47 20° NNE
PSLV R/B 3.2 23:34:03 10° SSE 23:38:06 71° ENE 23:42:09 10° N
SL-12 R/B(2) 4.4 23:32:29 10° S 23:39:37 46° ESE 23:44:54 22° NE
Cosmos 1992 Rocket 4.1 23:34:28 10° NNW 23:39:41 75° WSW 23:44:49 10° S
Helios 1A Rocket 3.3 23:39:05 10° N 23:42:21 50° WNW 23:45:38 10° SSW
NOAA 6 4.0 23:38:22 10° SSE 23:43:23 57° ENE 23:48:27 10° N
Cosmos 1269 Rocket 3.9 23:40:26 10° SSW 23:45:40 80° ESE 23:49:42 18° NNE
Cosmos 2278 Rocket 3.7 23:41:14 10° SSE 23:43:16 19° SE 23:43:16 19° SE
Resurs 1-3 3.4 23:43:53 10° SSE 23:48:10 85° ENE 23:52:29 10° N
Tsikada Rocket 4.2 23:45:06 10° N 23:51:31 76° W 23:57:52 10° S
ATLAS CENTAUR R/B 2.7 23:50:51 10° WSW 23:53:55 29° NW 23:55:18 22° NNW
CZ-4C R/B 3.9 23:50:56 10° W 23:54:16 21° NW 23:58:11 10° N
